Weather History for KACQ - October, 2012

Change the Weather History Date:

Sunday, October 7, 2012

  Actual Average Record
Temperature  
Mean Temperature 36 °F -  
Max Temperature 53 °F 60 °F 87 °F (2003)
Min Temperature 19 °F 37 °F 19 °F (2012)
Degree Days  
Heating Degree Days 29    
Moisture  
Dew Point 18 °F    
Average Humidity 48    
Maximum Humidity 86    
Minimum Humidity 18    
Precipitation  
Precipitation 0.00 in - - ()
Sea Level Pressure  
Sea Level Pressure 30.11 in    
Wind  
Wind Speed 7 mph (SSW)    
Max Wind Speed 20 mph    
Max Gust Speed 26 mph    
Visibility 10 miles    
Events      
Averages and records for this station are not official NWS values.
T = Trace of Precipitation, MM = Missing Value Source: NWS Daily Summary

Daily Weather History Graph

Daily Weather History Graph

Search for Another Location

Airport or City:

Trip Planner

Search our weather history database for the weather conditions in past years. The results will help you decide how hot, cold, wet, or windy it might be!

Date:

Astronomy

Oct. 07, 2012 Rise Set
Actual Time 7:19 AM CDT 6:43 PM CDT
Civil Twilight 6:50 AM CDT 7:12 PM CDT
Nautical Twilight 6:17 AM CDT 7:45 PM CDT
Astronomical Twilight 5:43 AM CDT 8:19 PM CDT
Moon 11:47 PM CDT (10/7) 2:05 PM CDT (10/7)
Length of Visible Light 12h 21m
Length of Day
11h 23m
Waning Gibbous, 56% of the Moon is Illuminated
Oct 7
Waning Gibbous
Oct 8
Last Quarter
Oct 15
New
Oct 21
First Quarter
Oct 29
Full

Hourly Weather History & Observations

Time (CDT) Temp. Windchill Dew Point Humidity Pressure Visibility Wind Dir Wind Speed Gust Speed Precip Events Conditions
12:12 AM 33.8 °F 29.6 °F 19.4 °F 56% 30.25 in 10.0 mi WSW 4.6 mph - N/A   Overcast
12:33 AM 33.8 °F 29.6 °F 21.2 °F 60% 30.25 in 10.0 mi West 4.6 mph - N/A   Mostly Cloudy
12:53 AM 32.0 °F 28.7 °F 19.4 °F 60% 30.25 in 10.0 mi West 3.5 mph - N/A   Scattered Clouds
1:13 AM 30.2 °F 26.7 °F 17.6 °F 60% 30.25 in 10.0 mi West 3.5 mph - N/A   Clear
1:32 AM 28.4 °F 24.6 °F 17.6 °F 64% 30.24 in 10.0 mi West 3.5 mph - N/A   Clear
1:53 AM 26.6 °F 22.6 °F 15.8 °F 64% 30.24 in 10.0 mi West 3.5 mph - N/A   Clear
2:13 AM 26.6 °F 22.6 °F 17.6 °F 69% 30.25 in 7.0 mi WSW 3.5 mph - N/A   Clear
2:32 AM 28.4 °F 24.6 °F 17.6 °F 64% 30.24 in 10.0 mi WSW 3.5 mph - N/A   Clear
2:53 AM 26.6 °F 22.6 °F 17.6 °F 69% 30.23 in 10.0 mi WSW 3.5 mph - N/A   Clear
3:13 AM 26.6 °F 22.6 °F 17.6 °F 69% 30.24 in 10.0 mi SW 3.5 mph - N/A   Clear
3:32 AM 26.6 °F 22.6 °F 17.6 °F 69% 30.23 in 10.0 mi SW 3.5 mph - N/A   Clear
3:53 AM 24.8 °F 20.5 °F 17.6 °F 74% 30.23 in 10.0 mi SW 3.5 mph - N/A   Clear
4:13 AM 24.8 °F 20.5 °F 17.6 °F 74% 30.23 in 10.0 mi SSW 3.5 mph - N/A   Clear
4:32 AM 23.0 °F 17.0 °F 15.8 °F 74% 30.22 in 10.0 mi SSW 4.6 mph - N/A   Clear
4:53 AM 23.0 °F 18.4 °F 17.6 °F 80% 30.22 in 10.0 mi SSW 3.5 mph - N/A   Clear
5:13 AM 23.0 °F 18.4 °F 17.6 °F 80% 30.21 in 10.0 mi SSW 3.5 mph - N/A   Clear
5:33 AM 23.0 °F - 17.6 °F 80% 30.21 in 10.0 mi Calm Calm - N/A   Clear
5:52 AM 23.0 °F - 17.6 °F 80% 30.21 in 10.0 mi Calm Calm - N/A   Clear
6:13 AM 21.2 °F - 17.6 °F 86% 30.21 in 10.0 mi Calm Calm - N/A   Clear
6:33 AM 23.0 °F - 17.6 °F 80% 30.21 in 10.0 mi Calm Calm - N/A   Clear
6:52 AM 23.0 °F 17.0 °F 17.6 °F 80% 30.20 in 10.0 mi South 4.6 mph - N/A   Clear
7:13 AM 23.0 °F - 17.6 °F 80% 30.20 in 10.0 mi Calm Calm - N/A   Clear
7:33 AM 19.4 °F - 14.0 °F 80% 30.21 in 10.0 mi Calm Calm - N/A   Clear
7:52 AM 21.2 °F 16.4 °F 15.8 °F 80% 30.21 in 10.0 mi South 3.5 mph - N/A   Clear
8:13 AM 24.8 °F 20.5 °F 19.4 °F 80% 30.20 in 10.0 mi South 3.5 mph - N/A   Clear
8:33 AM 28.4 °F 23.3 °F 21.2 °F 74% 30.21 in 10.0 mi South 4.6 mph - N/A   Clear
8:53 AM - - - N/A% 30.20 in - South 4.6 mph - N/A   Unknown
9:13 AM 33.8 °F 27.7 °F 24.8 °F 70% 30.20 in 10.0 mi SSW 6.9 mph - N/A   Clear
9:33 AM 35.6 °F 28.0 °F 23.0 °F 60% 30.20 in 10.0 mi SW 10.4 mph - N/A   Clear
9:52 AM 39.2 °F 32.0 °F 23.0 °F 52% 30.20 in 10.0 mi SSW 11.5 mph - N/A   Clear
10:13 AM 41.0 °F 33.9 °F 23.0 °F 49% 30.19 in 10.0 mi SSW 12.7 mph - N/A   Clear
10:33 AM 42.8 °F 35.8 °F 23.0 °F 46% 30.19 in 10.0 mi SW 13.8 mph 18.4 mph N/A   Clear
10:52 AM 44.6 °F 38.4 °F 21.2 °F 39% 30.19 in 10.0 mi SW 12.7 mph 18.4 mph N/A   Clear
11:13 AM 44.6 °F 38.4 °F 21.2 °F 39% 30.18 in 10.0 mi SW 12.7 mph - N/A   Clear
11:33 AM 46.4 °F 40.7 °F 21.2 °F 37% 30.17 in 10.0 mi SW 12.7 mph 18.4 mph N/A   Clear
11:53 AM 46.4 °F 40.1 °F 19.4 °F 34% 30.16 in 10.0 mi SSW 15.0 mph 19.6 mph N/A   Clear
12:13 PM 48.2 °F - 15.8 °F 27% 30.16 in 10.0 mi SW 13.8 mph 20.7 mph N/A   Clear
12:32 PM 48.2 °F - 15.8 °F 27% 30.15 in 10.0 mi SW 12.7 mph - N/A   Clear
12:53 PM 51.8 °F - 17.6 °F 26% 30.14 in 10.0 mi SSW 12.7 mph 26.5 mph N/A   Clear
1:13 PM 51.8 °F - 15.8 °F 24% 30.12 in 10.0 mi SSW 13.8 mph 21.9 mph N/A   Clear
1:32 PM 51.8 °F - 14.0 °F 22% 30.11 in 10.0 mi SW 16.1 mph 21.9 mph N/A   Clear
1:53 PM 53.6 °F - 14.0 °F 21% 30.10 in 10.0 mi WSW 18.4 mph 23.0 mph N/A   Clear
2:13 PM 53.6 °F - 14.0 °F 21% 30.08 in 10.0 mi SW 16.1 mph 21.9 mph N/A   Clear
2:32 PM 53.6 °F - 12.2 °F 19% 30.07 in 10.0 mi SW 19.6 mph 24.2 mph N/A   Clear
2:53 PM 53.6 °F - 12.2 °F 19% 30.06 in 10.0 mi SW 18.4 mph - N/A   Clear
3:13 PM 53.6 °F - 12.2 °F 19% 30.05 in 10.0 mi SW 12.7 mph 23.0 mph N/A   Clear
3:33 PM 53.6 °F - 12.2 °F 19% 30.04 in 10.0 mi SW 13.8 mph 19.6 mph N/A   Clear
3:53 PM 53.6 °F - 10.4 °F 18% 30.03 in 10.0 mi SSW 13.8 mph 24.2 mph N/A   Clear
4:13 PM 53.6 °F - 10.4 °F 18% 30.02 in 10.0 mi SSW 16.1 mph 23.0 mph N/A   Clear
4:33 PM 53.6 °F - 14.0 °F 21% 30.01 in 10.0 mi SSW 13.8 mph 20.7 mph N/A   Clear
4:53 PM 53.6 °F - 14.0 °F 21% 30.00 in 10.0 mi SSW 15.0 mph 18.4 mph N/A   Clear
5:13 PM 53.6 °F - 14.0 °F 21% 30.00 in 10.0 mi SSW 15.0 mph 21.9 mph N/A   Clear
5:33 PM 53.6 °F - 14.0 °F 21% 29.99 in 10.0 mi SW 10.4 mph 17.3 mph N/A   Clear
5:53 PM 53.6 °F - 15.8 °F 22% 29.98 in 10.0 mi SSW 12.7 mph - N/A   Clear
6:12 PM 53.6 °F - 17.6 °F 24% 29.98 in 10.0 mi SSW 9.2 mph - N/A   Clear
6:33 PM 50.0 °F - 17.6 °F 28% 29.98 in 10.0 mi SSW 6.9 mph - N/A   Clear
6:53 PM 46.4 °F 42.9 °F 17.6 °F 32% 29.97 in 10.0 mi South 6.9 mph - N/A   Clear
7:12 PM 44.6 °F 40.2 °F 17.6 °F 34% 29.97 in 10.0 mi South 8.1 mph - N/A   Clear
7:53 PM 41.0 °F 35.8 °F 17.6 °F 39% 29.97 in 10.0 mi South 8.1 mph - N/A   Clear
8:12 PM 41.0 °F 35.8 °F 17.6 °F 39% 29.97 in 10.0 mi SSE 8.1 mph - N/A   Clear
8:33 PM 42.8 °F 38.0 °F 17.6 °F 36% 29.97 in 7.0 mi South 8.1 mph - N/A   Clear
8:53 PM 42.8 °F 37.5 °F 19.4 °F 39% 29.96 in 10.0 mi South 9.2 mph - N/A   Clear
9:12 PM 42.8 °F 37.0 °F 19.4 °F 39% 29.96 in 10.0 mi SSE 10.4 mph - N/A   Clear
9:33 PM 44.6 °F 39.7 °F 21.2 °F 39% 29.96 in 10.0 mi South 9.2 mph - N/A   Clear
9:52 PM 42.8 °F 37.0 °F 21.2 °F 42% 29.96 in 10.0 mi South 10.4 mph - N/A   Clear
10:13 PM 44.6 °F 38.8 °F 21.2 °F 39% 29.95 in 10.0 mi South 11.5 mph - N/A   Clear
10:33 PM 42.8 °F 37.0 °F 21.2 °F 42% 29.95 in 10.0 mi South 10.4 mph - N/A   Clear
10:52 PM 42.8 °F 36.2 °F 21.2 °F 42% 29.95 in 10.0 mi South 12.7 mph - N/A   Clear
11:12 PM 44.6 °F 38.8 °F 21.2 °F 39% 29.94 in 10.0 mi South 11.5 mph - N/A   Clear
11:33 PM 42.8 °F 36.2 °F 19.4 °F 39% 29.94 in 10.0 mi South 12.7 mph - N/A   Clear
11:52 PM 41.0 °F 34.3 °F 19.4 °F 42% 29.93 in 10.0 mi South 11.5 mph - N/A   Clear